Location: *
(43.4667°N, 11.6833°E)
Time: 06:36:29
(UTC+00:00)

SL-16 R/B - Pass Details

Date: 19 July 2019
Orbit: 843 x 847 km, 71.0° (Epoch: 23 August)

Event Time Altitude Azimuth Distance (km) Brightness Sun altitude
Exits shadow 22:20:24 33° 98° (E) 1,383 3.1 -24.3°
Drops below altitude 10° 22:25:07 10° 42° (NE) 2,470 5.0 -24.6°
Sets 22:27:46 0° 34° (NNE) 3,409 6.0 -24.7°
